Regional Weather Roundup
Issued by NWS Sterling, VA

Home | Current Version | Previous Version | Graphics & Text | Print | Product List | Glossary On
Versions: 1 2 3 4 5 6 7 8 9 10 11 12 13 14 15 16 17 18 19 20 21 22 23 24 25 26 27 28
000
ASUS41 KLWX 161910
RWRLWX

REGIONAL WEATHER ROUNDUP
NATIONAL WEATHER SERVICE BALTIMORE MD/WASHINGTON DC
300 PM EDT WED APR 16 2014

Note: "FAIR" indicates few or no clouds below 12,000 feet
with no significant weather and/or obstructions to visibility.
 TC=TEMPERATURE CELSIUS

 * =Non NWS site. Station does not report precipitation (e.g. rain,
    snow, etc.), thunder, or fog.

DCZ001-MDZ009-015-VAZ040>042-051-053>054-162000-
WASHINGTON METRO

CITY           SKY/WX    TMP DP  RH WIND       PRES   REMARKS
WASHINGTON NAT SUNNY     49  19  30 N15       30.45F
DULLES         MOSUNNY   46  17  31 NW8G18    30.45F
ANDREWS AFB    SUNNY     46  17  31 N12       30.43F
FT BELVOIR     SUNNY     49  14  24 N8        30.45F
QUANTICO       SUNNY     49  18  29 NE7G14    30.45F
COLLEGE PARK*  SUNNY     46  18  31 NW10      30.45F
LEESBURG*      SUNNY     45  21  39 NE9       30.45F
MANASSAS*      SUNNY     46  18  31 N14G21    30.44F
GAITHERSBURG*  SUNNY     45  16  31 NE9G16    30.46F

$$

MDZ006>007-011-014-162000-
BALTIMORE METRO

CITY           SKY/WX    TMP DP  RH WIND       PRES   REMARKS
BWI AIRPORT    SUNNY     46  16  30 N8        30.43F
MD SCIENCE CTR   N/A     47  15  27 MISG      30.46F
MARTIN STATE   SUNNY     46  21  36 NW9       30.46F
ANNAPOLIS      SUNNY     45  19  35 N15G22    30.44F
FORT MEADE*    SUNNY     45  16  31 N9G16     30.46F

$$

MDZ012-015-019>023-162000-
MARYLAND EASTERN SHORE

CITY           SKY/WX    TMP DP  RH WIND       PRES   REMARKS
OCEAN CITY     SUNNY     47  25  42 NE14G21   30.40F
SALISBURY      SUNNY     49  24  37 N10G23    30.40F
BAY BRIDGE AP* SUNNY     45  18  33 N14       30.45F
CAMBRIDGE*     SUNNY     46  19  34 N12G17    30.41F
EASTON*        SUNNY     48  23  37 N15       30.46F

$$

MDZ017>025-162000-
SOUTHERN MARYLAND

CITY           SKY/WX    TMP DP  RH WIND       PRES   REMARKS
PATUXENT RIVER SUNNY     46  22  38 N20G25    30.43F
ST INIGOES     SUNNY     46  22  38 N12G17    30.42F
LEONARDTOWN*   SUNNY     45  19  36 N7G17     30.44S

$$

MDZ003>005-162000-
NORTH CENTRAL MARYLAND

CITY           SKY/WX    TMP DP  RH WIND       PRES   REMARKS
FREDERICK*     NOT AVBL
HAGERSTOWN APT SUNNY     43  14  31 NW7       30.44F
WESTMINSTER*   SUNNY     43  12  28 NE8       30.43F

$$

MDZ501>502-162000-
WESTERN MARYLAND

CITY           SKY/WX    TMP DP  RH WIND       PRES   REMARKS
OAKLAND*       SUNNY     34   5  29 N5        30.34S
CUMBERLAND*    SUNNY     45  10  24 CALM      30.47F

$$

VAZ025>031-162000-
SHENANDOAH VALLEY

CITY           SKY/WX    TMP DP  RH WIND       PRES   REMARKS
WINCHESTER*    SUNNY     45  16  31 CALM      30.43F
STAUNTON*      SUNNY     44  18  35 N6        30.41F

$$

WVZ021-048>050-054>055-162000-
EASTERN WEST VIRGINIA PANHANDLE

CITY           SKY/WX    TMP DP  RH WIND       PRES   REMARKS
MARTINSBURG    SUNNY     45  12  26 CALM      30.45F
PETERSBURG*    SUNNY     49  25  38 SE6       30.42F

$$

VAZ036>039-050-162000-
CENTRAL FOOTHILLS

CITY           SKY/WX    TMP DP  RH WIND       PRES   REMARKS
CHARLOTTESVILL SUNNY     49  19  30 N8        30.40F
CULPEPER*      SUNNY     48   9  20 N14       30.44F

$$

VAZ055>057-162000-
NORTH AND CENTRAL PIEDMONT

CITY           SKY/WX    TMP DP  RH WIND       PRES   REMARKS
FREDERICKSBRG* SUNNY     50  18  27 N10       30.43F
STAFFORD*      SUNNY     49  20  32 N10G17    30.47F

$$

NCZ024-NYZ072-PAZ021-071-VAZ022-071-162000-
OTHER REGIONAL OBSERVATIONS

CITY           SKY/WX    TMP DP  RH WIND       PRES   REMARKS
NEW YORK CITY  SUNNY     46  15  28 MISG      30.44R
PHILADELPHIA   MOSUNNY   47  16  29 N15G25    30.44S
PITTSBURGH     MOSUNNY   39  12  33 VRB3      30.43F
ROANOKE        SUNNY     48  18  30 W5        30.38F
RICHMOND       SUNNY     52  16  24 NE10G17   30.40F
RALEIGH        SUNNY     52  25  35 E9        30.37S

$$

ANZ530>537-162000-
MARINE OBSERVATIONS

STATION/POSITION TIME  TEMP    WIND        PRES
                       AIR SEA DIR/SP/G
                 (UTC) (F)     (DEG/KT/KT) (MB)
THOMAS PT LIGHT  1900   43 52  360/ 16/ 19 1031.0F
BALT KEY BRIDGE  1900   43     330/ 11/ 15 1031.3F
COVE POINT       1900   41      20/ 14/ 18 1030.3F
LEWISETTA        1900   45 49   30/  8/ 12 1030.0R
SOLOMONS ISLAND  1900      53                N/A
PINEY POINT      1900           50/ 12/ 15   N/A

$$




USA.gov is the U.S. government's official web portal to all federal, state and local government web resources and services.